[[{"header":{"parameterUnit":"m.s-1","parameterCategory":2,"la1":30.2991,"la2":30.254,"lo1":-89.0895,"lo2":-89.0444,"dy":0.0017,"dx":0.0017,"nx":28,"ny":28,"refTime":"2023-09-13T09:00:00:Z","depth":"0","parameterNumber":2,"parameterNumberName":"U-component_of_CURRENTS"},"data":[0,0,0,0,0,0,0,0,0,0,0,0,0,0,0,0,0,0,0,0,0,0,0,0,0,0,0,0,0,0,0,0,0,0,0,0,0,0,0,0,0,0,0,0,0,0,0,0,0,0,0,0,0,0,0,0,0,0,-0.2995,-0.2995,0,-0.3008,-0.3008,-0.3007,-0.2984,-0.2983,-0.2983,-0.2983,-0.2893,-0.2891,-0.2889,0,0,0,0,0,0,0,0,0,0,0,0,0,-0.2871,-0.2873,-0.2995,-0.2995,-0.2996,-0.3008,-0.3008,-0.3007,-0.2984,-0.2983,-0.2983,-0.2983,-0.2894,-0.2891,-0.2889,0,0,0,0,0,0,0,0,0,0,0,0,0,-0.2904,-0.2874,-0.2995,-0.299,-0.299,-0.3008,-0.3008,-0.3007,-0.2984,-0.2983,-0.2983,-0.2983,-0.2894,-0.2891,-0.2888,-0.2878,0,0,-0.2878,-0.2877,0,0,0,0,0,0,0,0,-0.2902,-0.2908,-0.299,-0.299,-0.299,-0.2998,-0.2931,-0.2961,-0.2984,-0.298,-0.2983,-0.2982,-0.2922,-0.2917,-0.2914,-0.2873,-0.287,-0.2878,-0.2876,-0.2875,-0.2874,0,0,0,0,0,0,0,-0.29,-0.2906,-0.2995,-0.2991,-0.2991,-0.296,-0.2965,-0.2936,-0.2948,-0.2981,-0.298,-0.2991,-0.2921,-0.2917,-0.2912,-0.2868,-0.2878,-0.2875,-0.2874,-0.2872,-0.2868,-0.287,0,0,0,0,0,0,-0.2914,-0.2905,-0.2994,-0.2995,-0.295,-0.2964,-0.2968,-0.2992,-0.295,-0.2946,-0.2991,-0.299,-0.2923,-0.2916,-0.2908,-0.2968,-0.2875,-0.2872,-0.287,-0.2866,-0.2869,-0.2871,0,0,0,0,0,0,-0.2912,-0.2923,-0.2994,-0.2953,-0.2961,-0.2968,-0.2994,-0.2993,-0.2992,-0.296,-0.2953,-0.2993,-0.2922,-0.2913,-0.2903,-0.2961,-0.2871,-0.2868,-0.2864,-0.2867,-0.287,-0.3038,0,0,0,0,0,0,-0.2908,-0.2922,-0.2936,-0.2955,-0.2964,-0.3022,-0.2995,-0.2993,-0.3002,-0.3,-0.2959,-0.295,-0.2921,-0.2908,-0.29,-0.2955,-0.2865,-0.2862,-0.2866,-0.2869,-0.303,-0.3046,-0.3059,0,0,0,0,0,-0.2904,-0.2932,-0.2937,-0.2947,-0.2987,-0.3024,-0.3025,-0.3023,-0.3002,-0.3016,-0.299,-0.2952,-0.2924,-0.2907,-0.2897,-0.2952,-0.286,-0.2865,-0.2869,-0.3023,-0.3043,-0.3059,0,0,0,0,0,0,-0.2874,-0.2933,-0.2938,-0.298,-0.3007,-0.3022,-0.3031,-0.3027,-0.3018,-0.3007,-0.2966,-0.2957,-0.2975,-0.2931,-0.2913,-0.2959,-0.2889,-0.2891,-0.301,-0.3028,-0.3042,-0.3055,-0.2863,0,0,0,0,0,-0.288,-0.2919,-0.2962,-0.2991,-0.301,-0.3018,-0.3028,-0.3032,-0.3032,-0.3027,-0.3005,-0.2982,-0.2984,-0.2978,-0.2961,-0.2976,-0.2899,-0.3006,-0.3021,-0.3034,-0.3037,-0.2997,-0.3009,-0.2884,-0.2884,-0.2884,0,0,-0.2871,-0.2911,-0.2929,-0.2988,-0.3002,-0.3056,-0.3022,-0.3048,-0.3097,-0.3016,-0.3056,-0.3026,-0.2997,-0.3031,-0.3034,-0.3001,-0.302,-0.3039,-0.3051,-0.3046,-0.3002,-0.3014,-0.3025,-0.2887,-0.2886,-0.2886,0,0,-0.289,-0.2916,-0.2962,-0.3004,-0.305,-0.3069,-0.3083,-0.311,-0.3126,-0.3156,-0.3126,-0.3132,-0.3114,-0.3127,-0.3127,-0.3205,-0.3099,-0.3197,-0.3287,-0.325,-0.326,-0.3268,-0.315,-0.3146,-0.3208,-0.3208,-0.3209,0,-0.2875,-0.2941,-0.2976,-0.3042,-0.3072,-0.3085,-0.3136,-0.3177,-0.3198,-0.3211,-0.3186,-0.3186,-0.3171,-0.3224,-0.3271,-0.3243,-0.3166,-0.3229,-0.3271,-0.3277,-0.3282,-0.3159,-0.3153,-0.3217,-0.3216,-0.3215,-0.3214,0,-0.2941,-0.2992,-0.3021,-0.3116,-0.3162,-0.3197,-0.3271,-0.3309,-0.3316,-0.3337,-0.3371,-0.3352,-0.3341,-0.3365,-0.335,-0.3398,-0.3309,-0.3294,-0.3229,-0.3305,-0.3169,-0.316,-0.3229,-0.3226,-0.3224,-0.3222,0,0,-0.2876,-0.3035,-0.3035,-0.3073,-0.3193,-0.3215,-0.3337,-0.3409,-0.3411,-0.3482,-0.3477,-0.3563,-0.352,-0.3516,-0.3496,-0.3497,-0.3478,-0.3426,-0.342,-0.3313,-0.3326,-0.3142,-0.3111,-0.347,-0.347,-0.347,-0.3203,0,-0.2893,-0.301,-0.3094,-0.3173,-0.3226,-0.3303,-0.338,-0.3457,-0.3481,-0.3481,-0.3539,-0.3511,-0.3591,-0.3535,-0.3584,-0.347,-0.3465,-0.3547,-0.3263,-0.3253,-0.3086,-0.31,-0.298,-0.2722,-0.3192,-0.319,-0.3189,0,-0.2901,-0.298,-0.3075,-0.3165,-0.3186,-0.3243,-0.3298,-0.3369,-0.3442,-0.345,-0.3509,-0.3487,-0.3534,-0.3543,-0.3496,-0.3535,-0.3464,-0.3398,-0.3386,-0.315,-0.3053,-0.2728,-0.2685,-0.2688,-0.3173,-0.3174,-0.3175,0,-0.2792,-0.2932,-0.2989,-0.3035,-0.317,-0.3206,-0.3262,-0.3346,-0.3348,-0.3401,-0.3336,-0.343,-0.3347,-0.338,-0.3302,-0.3378,-0.3162,-0.323,-0.3007,-0.2988,-0.2796,-0.276,-0.2727,-0.3198,-0.3198,-0.3199,-0.32,0,-0.2753,-0.2779,-0.2932,-0.2961,-0.2972,-0.3107,-0.309,-0.3166,-0.3197,-0.3144,-0.328,-0.3187,-0.3297,-0.3199,-0.3224,-0.3039,-0.3101,-0.3,-0.2919,-0.2843,-0.2817,-0.2736,-0.2786,-0.3189,-0.3191,-0.3193,-0.3195,0,-0.2622,-0.2731,-0.2777,-0.2904,-0.2925,-0.2927,-0.298,-0.2958,-0.3007,-0.2926,-0.2923,-0.2942,-0.2826,-0.2869,-0.279,-0.282,-0.2656,-0.2646,-0.2508,-0.2418,-0.2269,-0.2332,-0.2136,-0.2084,-0.2381,-0.2375,-0.237,0,-0.2576,-0.2601,-0.2692,-0.2688,-0.2739,-0.2765,-0.2769,-0.2861,-0.2831,-0.2747,-0.2673,-0.2542,-0.2445,-0.2261,-0.2268,-0.2212,-0.2331,-0.2066,-0.2244,-0.2218,-0.2231,-0.2291,-0.2271,-0.2031,-0.2023,-0.2017,-0.2012,0,-0.2462,-0.2483,-0.2506,-0.2522,-0.2525,-0.2534,-0.2548,-0.2489,-0.2541,-0.2438,-0.2262,-0.2162,-0.1988,-0.1866,-0.1787,-0.1787,-0.2017,-0.1935,-0.1972,-0.1998,-0.1999,-0.192,-0.2205,-0.1958,-0.1964,-0.1968,-0.1971,-0.1973,-0.2322,-0.2298,-0.232,-0.2313,-0.2322,-0.2299,-0.2237,-0.222,-0.2108,-0.1932,-0.1909,-0.172,-0.1646,-0.1522,-0.148,-0.1407,-0.1558,-0.1475,-0.1554,-0.1617,-0.1588,-0.1706,-0.1345,-0.1347,-0.1348,-0.135,-0.1351,0,-0.2145,-0.2134,-0.2118,-0.2104,-0.2065,-0.2135,-0.2072,-0.1967,-0.1773,-0.1653,-0.1486,-0.1356,-0.1216,-0.1211,-0.1141,-0.1098,-0.1152,-0.1112,-0.1245,-0.1249,-0.138,-0.1391,-0.0946,-0.0946,-0.0946,-0.0946,-0.0946,-0.0946,-0.2028,-0.1947,-0.1956,-0.185,-0.1851,-0.1745,-0.1679,-0.1517,-0.1405,-0.115,-0.1058,-0.1043,-0.1058,-0.112,-0.1046,-0.1,-0.1066,-0.0966,-0.1056,-0.1249,-0.1294,-0.1337,-0.1361,-0.0918,-0.0918,-0.0882,-0.0882,-0.0882]},{"header":{"parameterUnit":"m.s-1","parameterCategory":2,"la1":30.2991,"la2":30.254,"lo1":-89.0895,"lo2":-89.0444,"dy":0.0017,"dx":0.0017,"nx":28,"ny":28,"refTime":"2023-09-13T09:00:00:Z","depth":"0","parameterNumber":3,"parameterNumberName":"V-component_of_CURRENTS"},"data":[0,0,0,0,0,0,0,0,0,0,0,0,0,0,0,0,0,0,0,0,0,0,0,0,0,0,0,0,0,0,0,0,0,0,0,0,0,0,0,0,0,0,0,0,0,0,0,0,0,0,0,0,0,0,0,0,0,0,0.0287,0.0288,0,0.0401,0.0403,0.0404,0.0455,0.0455,0.0455,0.0455,0.0563,0.0566,0.0569,0,0,0,0,0,0,0,0,0,0,0,0,0,0.0154,0.0156,0.0287,0.0288,0.029,0.0401,0.0403,0.0404,0.0455,0.0455,0.0455,0.0455,0.0562,0.0565,0.0569,0,0,0,0,0,0,0,0,0,0,0,0,0,0.0234,0.0157,0.0287,0.0328,0.0333,0.0401,0.0403,0.0405,0.0456,0.0455,0.0455,0.0455,0.0561,0.0565,0.057,0.0602,0,0,0.0583,0.0585,0,0,0,0,0,0,0,0,0.023,0.0239,0.0321,0.0326,0.0331,0.0414,0.0396,0.047,0.0456,0.0409,0.0455,0.0455,0.0512,0.0521,0.0543,0.0607,0.0612,0.0584,0.0587,0.0589,0.059,0,0,0,0,0,0,0,0.0224,0.0235,0.0333,0.0322,0.0329,0.0356,0.0366,0.041,0.0461,0.0413,0.0417,0.043,0.0515,0.0539,0.0546,0.0614,0.0584,0.0588,0.0591,0.0592,0.0693,0.0693,0,0,0,0,0,0,0.0208,0.023,0.0329,0.0336,0.0279,0.0358,0.037,0.0388,0.0461,0.0472,0.043,0.0432,0.0531,0.0541,0.055,0.057,0.0589,0.0593,0.0595,0.0693,0.0693,0.0693,0,0,0,0,0,0,0.0205,0.0216,0.0324,0.0285,0.03,0.036,0.038,0.039,0.0412,0.0473,0.0484,0.0441,0.0532,0.0544,0.058,0.0575,0.0595,0.0599,0.0693,0.0693,0.0693,0.0623,0,0,0,0,0,0,0.02,0.0214,0.0216,0.0284,0.0302,0.0355,0.038,0.0392,0.042,0.0424,0.0487,0.0496,0.0532,0.0573,0.0584,0.0581,0.0602,0.0693,0.0693,0.0693,0.0626,0.0621,0.0617,0,0,0,0,0,0.0195,0.0198,0.0215,0.0227,0.0304,0.0355,0.0366,0.0408,0.0421,0.0428,0.0467,0.0494,0.0581,0.0576,0.059,0.0588,0.0694,0.0693,0.0693,0.0628,0.0622,0.0617,0,0,0,0,0,0,0.0136,0.0205,0.0226,0.0248,0.0293,0.0363,0.037,0.0404,0.0443,0.0442,0.0498,0.0511,0.0539,0.0576,0.057,0.0618,0.0641,0.0643,0.0586,0.0581,0.0577,0.0559,0.0606,0,0,0,0,0,0.0125,0.0144,0.0213,0.0226,0.0246,0.0308,0.0332,0.0363,0.0409,0.0427,0.0469,0.0513,0.0552,0.0574,0.0613,0.0643,0.0657,0.065,0.0645,0.0641,0.0636,0.0654,0.065,0.0693,0.0693,0.0693,0,0,0.0102,0.0143,0.0153,0.0214,0.025,0.0264,0.0321,0.0352,0.0361,0.0432,0.0448,0.0499,0.0556,0.0584,0.0601,0.0613,0.0633,0.0641,0.0637,0.0635,0.0654,0.065,0.0646,0.0693,0.0693,0.0693,0,0,0.0052,0.0105,0.0096,0.0133,0.0185,0.023,0.0235,0.0303,0.033,0.0361,0.041,0.046,0.0514,0.056,0.0589,0.0587,0.0608,0.0595,0.0561,0.0578,0.0574,0.0571,0.0562,0.0559,0.0594,0.0594,0.0594,0,0.0014,0.0019,0.0099,0.0097,0.0114,0.0206,0.0192,0.024,0.0308,0.0333,0.0349,0.0449,0.0502,0.0548,0.0549,0.0577,0.0575,0.0574,0.057,0.0568,0.0566,0.0558,0.0555,0.0591,0.0591,0.0591,0.0592,0,-0.004,-0.004,-0.0042,-0.0014,0.0021,0.0028,0.0105,0.0143,0.0189,0.0243,0.03,0.0379,0.044,0.0468,0.0508,0.053,0.0527,0.0559,0.0578,0.0557,0.055,0.0548,0.0586,0.0587,0.0588,0.0589,0,0,-0.0131,-0.0094,-0.0099,-0.0108,-0.0038,-0.0016,0.0013,0.007,0.0096,0.017,0.0194,0.0289,0.0352,0.0389,0.0456,0.0483,0.0473,0.0507,0.0509,0.0486,0.0478,0.0536,0.054,0.0493,0.0493,0.0493,0.047,0,-0.0213,-0.0254,-0.02,-0.0233,-0.0247,-0.0146,-0.0124,-0.0048,0.0027,0.0081,0.0187,0.0238,0.0315,0.0346,0.0386,0.0456,0.0468,0.0474,0.0513,0.0514,0.0558,0.0541,0.0567,0.0555,0.0469,0.0468,0.0468,0,-0.0298,-0.0311,-0.0365,-0.0342,-0.0335,-0.0329,-0.0256,-0.0223,-0.0103,-0.0041,0.0048,0.0137,0.0213,0.027,0.0362,0.0355,0.0405,0.0454,0.0455,0.0535,0.057,0.0569,0.0556,0.0682,0.0466,0.0466,0.0467,0,-0.041,-0.0427,-0.0476,-0.0468,-0.042,-0.0415,-0.0382,-0.0268,-0.0222,-0.0119,-0.0076,0.0036,0.0083,0.0167,0.0305,0.0315,0.0388,0.0417,0.051,0.0513,0.0559,0.0568,0.0668,0.0458,0.0459,0.0459,0.0459,0,-0.0516,-0.0558,-0.0534,-0.0558,-0.0585,-0.052,-0.0507,-0.0439,-0.0343,-0.0285,-0.0155,-0.0095,0.0057,0.0145,0.0254,0.0382,0.0349,0.0496,0.0517,0.0535,0.0541,0.0675,0.072,0.0458,0.0458,0.0458,0.0458,0,-0.0625,-0.0621,-0.0669,-0.0649,-0.0641,-0.0658,-0.0587,-0.0545,-0.0469,-0.0397,-0.0371,-0.0216,-0.0094,0.0065,0.0201,0.0316,0.0507,0.0484,0.0489,0.0512,0.073,0.0767,0.0855,0.0926,0.0565,0.0567,0.0568,0,-0.0686,-0.0726,-0.0734,-0.0738,-0.0731,-0.0731,-0.0692,-0.0613,-0.0552,-0.0453,-0.0415,-0.03,-0.0167,0.0052,0.0263,0.0447,0.0549,0.0576,0.0626,0.0745,0.0801,0.0819,0.0874,0.0638,0.064,0.0641,0.0642,0,-0.0781,-0.0781,-0.0803,-0.0808,-0.0795,-0.0764,-0.072,-0.07,-0.0591,-0.0551,-0.0464,-0.0379,-0.0138,0.0108,0.0364,0.048,0.0671,0.0611,0.0735,0.0871,0.0893,0.0971,0.063,0.0655,0.0653,0.0652,0.0652,0.0651,-0.0829,-0.086,-0.086,-0.0861,-0.0828,-0.0767,-0.0745,-0.0696,-0.0648,-0.0562,-0.0496,-0.0352,0.0006,0.0382,0.052,0.0824,0.0781,0.0919,0.0949,0.0951,0.1052,0.0736,0.0798,0.0797,0.0797,0.0797,0.0796,0,-0.0867,-0.0881,-0.0889,-0.0863,-0.0797,-0.0777,-0.0714,-0.0685,-0.0652,-0.0562,-0.0487,-0.01,0.0243,0.0575,0.0996,0.116,0.1187,0.1229,0.1259,0.1297,0.1019,0.106,0.1182,0.1182,0.1182,0.1182,0.1182,0.1181,-0.0882,-0.0904,-0.0903,-0.0818,-0.0776,-0.069,-0.0655,-0.0658,-0.0596,-0.0444,-0.0241,-0.0059,0.0436,0.1043,0.1423,0.1457,0.1594,0.1561,0.164,0.1457,0.143,0.1405,0.1458,0.1661,0.1661,0.1913,0.1916,0.1917]}],[{"header":{"parameterUnit":"m.s-1","parameterCategory":2,"la1":30.2991,"la2":30.254,"lo1":-89.0895,"lo2":-89.0444,"dy":0.0017,"dx":0.0017,"nx":28,"ny":28,"refTime":"2023-09-13T09:00:00:Z","depth":"2","parameterNumber":2,"parameterNumberName":"U-component_of_CURRENTS"},"data":[0,0,0,0,0,0,0,0,0,0,0,0,0,0,0,0,0,0,0,0,0,0,0,0,0,0,0,0,0,0,0,0,0,0,0,0,0,0,0,0,0,0,0,0,0,0,0,0,0,0,0,0,0,0,0,0,0,0,-0.2582,-0.2583,0,-0.2589,-0.2588,-0.2587,-0.2601,-0.2602,-0.2603,-0.2605,-0.2558,-0.2556,-0.2554,0,0,0,0,0,0,0,0,0,0,0,0,0,-0.2369,-0.2373,-0.2582,-0.2583,-0.2584,-0.2589,-0.2588,-0.2587,-0.2601,-0.2602,-0.2604,-0.2605,-0.2559,-0.2556,-0.2554,0,0,0,0,0,0,0,0,0,0,0,0,0,-0.2419,-0.2375,-0.2582,-0.2598,-0.26,-0.2589,-0.2588,-0.2587,-0.2601,-0.2602,-0.2604,-0.2606,-0.256,-0.2557,-0.2553,-0.2499,0,0,-0.2543,-0.2541,0,0,0,0,0,0,0,0,-0.2416,-0.2426,-0.2595,-0.2597,-0.2599,-0.2604,-0.2497,-0.2558,-0.26,-0.2591,-0.2605,-0.2607,-0.2573,-0.2569,-0.2554,-0.2496,-0.2494,-0.2543,-0.254,-0.2539,-0.2538,0,0,0,0,0,0,0,-0.2413,-0.2424,-0.2575,-0.2596,-0.2599,-0.2533,-0.2543,-0.2507,-0.2564,-0.2592,-0.2595,-0.261,-0.2573,-0.2557,-0.2553,-0.2494,-0.2543,-0.254,-0.2538,-0.2536,-0.2523,-0.2524,0,0,0,0,0,0,-0.2441,-0.2423,-0.2575,-0.2576,-0.252,-0.2537,-0.2548,-0.2593,-0.2566,-0.2567,-0.2609,-0.2611,-0.2562,-0.2557,-0.2552,-0.2615,-0.2539,-0.2536,-0.2534,-0.2521,-0.2523,-0.2525,0,0,0,0,0,0,-0.2437,-0.2456,-0.2575,-0.2504,-0.2516,-0.2542,-0.2591,-0.2593,-0.261,-0.2581,-0.2579,-0.2629,-0.2564,-0.2556,-0.2559,-0.2608,-0.2534,-0.2531,-0.2519,-0.2522,-0.2524,-0.2658,0,0,0,0,0,0,-0.2431,-0.2455,-0.2499,-0.2508,-0.2522,-0.2608,-0.259,-0.2592,-0.2619,-0.2622,-0.2597,-0.2593,-0.2564,-0.2565,-0.2556,-0.2602,-0.2529,-0.2517,-0.252,-0.2523,-0.2651,-0.2665,-0.2676,0,0,0,0,0,-0.2424,-0.2486,-0.2502,-0.2521,-0.2584,-0.2611,-0.2611,-0.2625,-0.2619,-0.2641,-0.2624,-0.2595,-0.258,-0.2563,-0.2552,-0.2599,-0.2515,-0.2519,-0.2523,-0.2646,-0.2662,-0.2676,0,0,0,0,0,0,-0.2389,-0.2494,-0.2512,-0.2596,-0.262,-0.2618,-0.2627,-0.2639,-0.2638,-0.2635,-0.2604,-0.2599,-0.2625,-0.2585,-0.2568,-0.2605,-0.2547,-0.2549,-0.2644,-0.2659,-0.2671,-0.2648,-0.2526,0,0,0,0,0,-0.2411,-0.2506,-0.255,-0.2614,-0.262,-0.2623,-0.2635,-0.2651,-0.2651,-0.2653,-0.2635,-0.2617,-0.2623,-0.2623,-0.2606,-0.2611,-0.2535,-0.2638,-0.265,-0.2661,-0.2635,-0.2565,-0.2567,-0.2538,-0.2538,-0.2537,0,0,-0.2419,-0.2483,-0.2538,-0.2617,-0.2614,-0.2651,-0.2632,-0.2659,-0.2713,-0.2643,-0.268,-0.2655,-0.2634,-0.2658,-0.2666,-0.2637,-0.2636,-0.2666,-0.2676,-0.2643,-0.2569,-0.2571,-0.2573,-0.254,-0.254,-0.2539,0,0,-0.2419,-0.252,-0.2561,-0.2598,-0.2635,-0.2676,-0.2697,-0.2707,-0.2734,-0.2764,-0.2742,-0.2741,-0.2732,-0.2732,-0.2733,-0.2795,-0.2704,-0.2803,-0.2845,-0.2779,-0.278,-0.2779,-0.2709,-0.2702,-0.2809,-0.2809,-0.2809,0,-0.2402,-0.2483,-0.2567,-0.2586,-0.2618,-0.2697,-0.2707,-0.2774,-0.2796,-0.2786,-0.2799,-0.2739,-0.277,-0.2762,-0.2835,-0.2825,-0.2756,-0.2797,-0.2793,-0.2791,-0.2788,-0.2716,-0.2706,-0.2816,-0.2815,-0.2815,-0.2814,0,-0.24,-0.2477,-0.2491,-0.2587,-0.2636,-0.2673,-0.277,-0.2812,-0.2858,-0.2888,-0.2869,-0.2863,-0.2811,-0.286,-0.2895,-0.2893,-0.2842,-0.2819,-0.2753,-0.2799,-0.2721,-0.2708,-0.2826,-0.2823,-0.2821,-0.282,0,0,-0.2324,-0.2465,-0.2467,-0.2508,-0.2639,-0.2676,-0.2775,-0.2848,-0.2858,-0.2905,-0.2869,-0.2944,-0.2893,-0.2889,-0.2888,-0.288,-0.2889,-0.2872,-0.2865,-0.2797,-0.2723,-0.2609,-0.2583,-0.2855,-0.2854,-0.2852,-0.2683,0,-0.2276,-0.2331,-0.2417,-0.2503,-0.2546,-0.2648,-0.2722,-0.281,-0.2865,-0.2876,-0.2888,-0.2883,-0.2927,-0.2891,-0.2894,-0.288,-0.2855,-0.2935,-0.2689,-0.2681,-0.2571,-0.2565,-0.2415,-0.2243,-0.2669,-0.2667,-0.2665,0,-0.2224,-0.2292,-0.2335,-0.2463,-0.2472,-0.2547,-0.2623,-0.27,-0.2773,-0.2772,-0.2742,-0.2766,-0.2789,-0.2818,-0.2743,-0.2783,-0.2774,-0.2756,-0.2748,-0.2572,-0.2542,-0.2261,-0.2202,-0.2642,-0.2644,-0.2646,-0.2647,0,-0.2144,-0.2239,-0.2287,-0.2333,-0.2479,-0.2491,-0.2577,-0.2648,-0.2667,-0.2713,-0.2673,-0.2667,-0.264,-0.2617,-0.2648,-0.2692,-0.2537,-0.2574,-0.243,-0.2421,-0.2206,-0.218,-0.2497,-0.2497,-0.2498,-0.2498,-0.2499,0,-0.2096,-0.2132,-0.2257,-0.2302,-0.232,-0.2439,-0.2443,-0.2492,-0.253,-0.25,-0.261,-0.252,-0.2594,-0.2545,-0.2576,-0.2434,-0.2455,-0.2406,-0.2357,-0.2252,-0.2234,-0.2507,-0.2511,-0.2492,-0.2493,-0.2494,-0.2495,0,-0.1999,-0.2088,-0.2145,-0.2269,-0.2296,-0.2313,-0.2388,-0.2375,-0.2421,-0.2366,-0.2384,-0.2415,-0.2333,-0.2359,-0.2312,-0.2292,-0.2216,-0.2164,-0.2042,-0.1982,-0.2168,-0.2181,-0.1971,-0.1965,-0.196,-0.1956,-0.1953,0,-0.1959,-0.1987,-0.2092,-0.2109,-0.2164,-0.2211,-0.2217,-0.23,-0.2281,-0.2252,-0.2201,-0.2166,-0.2083,-0.1963,-0.1935,-0.1869,-0.202,-0.1708,-0.1781,-0.2133,-0.2108,-0.2129,-0.2147,-0.156,-0.1554,-0.1549,-0.1545,0,-0.1863,-0.1891,-0.1923,-0.1973,-0.1996,-0.1992,-0.2029,-0.1993,-0.2035,-0.1998,-0.1895,-0.1851,-0.1741,-0.1611,-0.1559,-0.1526,-0.1718,-0.1597,-0.1937,-0.1729,-0.1735,-0.1715,-0.1749,-0.1499,-0.1503,-0.1507,-0.1509,-0.1511,-0.1745,-0.1734,-0.1779,-0.1784,-0.1817,-0.1759,-0.1674,-0.1714,-0.1644,-0.1559,-0.1591,-0.1481,-0.148,-0.1312,-0.1234,-0.1206,-0.1345,-0.1345,-0.1365,-0.139,-0.1385,-0.1383,-0.1079,-0.1081,-0.1083,-0.1085,-0.1086,0,-0.1596,-0.1592,-0.1603,-0.1587,-0.1537,-0.1609,-0.152,-0.1427,-0.1302,-0.1307,-0.1241,-0.1092,-0.0994,-0.1019,-0.0882,-0.0861,-0.0909,-0.0853,-0.0931,-0.0975,-0.1014,-0.0997,-0.0584,-0.0583,-0.0581,-0.058,0,0,-0.1504,-0.1442,-0.1442,-0.1295,-0.1299,-0.1122,-0.1021,-0.0976,-0.095,-0.0874,-0.0854,-0.0926,-0.0962,-0.0772,-0.0725,-0.0629,-0.0804,-0.0597,-0.0994,-0.1128,-0.1166,-0.1282,-0.1299,0,0,0,0,0]},{"header":{"parameterUnit":"m.s-1","parameterCategory":2,"la1":30.2991,"la2":30.254,"lo1":-89.0895,"lo2":-89.0444,"dy":0.0017,"dx":0.0017,"nx":28,"ny":28,"refTime":"2023-09-13T09:00:00:Z","depth":"2","parameterNumber":3,"parameterNumberName":"V-component_of_CURRENTS"},"data":[0,0,0,0,0,0,0,0,0,0,0,0,0,0,0,0,0,0,0,0,0,0,0,0,0,0,0,0,0,0,0,0,0,0,0,0,0,0,0,0,0,0,0,0,0,0,0,0,0,0,0,0,0,0,0,0,0,0,0.0089,0.009,0,0.0214,0.0215,0.0216,0.0294,0.0295,0.0296,0.0296,0.0431,0.0434,0.0437,0,0,0,0,0,0,0,0,0,0,0,0,0,-0.0083,-0.0081,0.0088,0.009,0.0092,0.0213,0.0215,0.0216,0.0294,0.0295,0.0296,0.0296,0.043,0.0433,0.0437,0,0,0,0,0,0,0,0,0,0,0,0,0,0.0009,-0.008,0.0088,0.0147,0.0154,0.0213,0.0215,0.0217,0.0294,0.0295,0.0296,0.0297,0.0428,0.0433,0.0437,0.0447,0,0,0.0451,0.0453,0,0,0,0,0,0,0,0,0.0004,0.0015,0.0136,0.0143,0.0151,0.0241,0.0204,0.0295,0.0294,0.0239,0.0296,0.0297,0.0369,0.0378,0.0397,0.0453,0.0459,0.0451,0.0454,0.0456,0.0457,0,0,0,0,0,0,0,-0.0003,0.001,0.0136,0.0138,0.0147,0.0167,0.0181,0.0221,0.0295,0.0243,0.025,0.0267,0.0373,0.0392,0.04,0.0461,0.0451,0.0455,0.0458,0.046,0.057,0.0571,0,0,0,0,0,0,-0.0014,0.0004,0.0132,0.014,0.008,0.0169,0.0185,0.0209,0.0295,0.031,0.0266,0.027,0.0384,0.0395,0.0406,0.0454,0.0456,0.046,0.0463,0.057,0.057,0.0571,0,0,0,0,0,0,-0.0019,-0.0004,0.0127,0.0076,0.0094,0.0172,0.0198,0.0211,0.0249,0.0312,0.0327,0.0292,0.0385,0.0399,0.045,0.0459,0.0462,0.0466,0.057,0.057,0.0571,0.053,0,0,0,0,0,0,-0.0024,-0.0006,0.0014,0.0075,0.0097,0.0171,0.0198,0.0213,0.0258,0.0265,0.0339,0.0352,0.0387,0.0442,0.0454,0.0465,0.047,0.057,0.057,0.057,0.0531,0.0529,0.0527,0,0,0,0,0,-0.003,-0.0009,0.0014,0.0031,0.012,0.0172,0.0184,0.024,0.0258,0.0276,0.0321,0.035,0.0453,0.0446,0.046,0.0472,0.0569,0.057,0.057,0.0532,0.0529,0.0527,0,0,0,0,0,0,-0.0087,0.0003,0.003,0.0075,0.0123,0.0186,0.02,0.0243,0.0293,0.0293,0.0355,0.0371,0.0415,0.0449,0.0439,0.0505,0.0516,0.0519,0.0482,0.048,0.0478,0.0471,0.0474,0,0,0,0,0,-0.0088,-0.0038,0.0031,0.0064,0.0078,0.0139,0.0169,0.0207,0.0257,0.0281,0.033,0.0378,0.0424,0.0456,0.0494,0.0534,0.0544,0.055,0.0548,0.0546,0.055,0.0588,0.059,0.0572,0.0572,0.0572,0,0,-0.01,-0.0047,-0.0018,0.0057,0.0085,0.0101,0.0158,0.0193,0.0222,0.0285,0.0324,0.037,0.0431,0.0472,0.0495,0.0506,0.0545,0.0547,0.0545,0.055,0.0589,0.0591,0.0592,0.0573,0.0573,0.0573,0,0,-0.0145,-0.0065,-0.0066,-0.0029,0.0023,0.0081,0.0092,0.0155,0.0198,0.0244,0.0293,0.0352,0.0412,0.0469,0.0503,0.0516,0.0528,0.0521,0.0517,0.0553,0.0555,0.0557,0.0519,0.0518,0.0528,0.0528,0.0528,0,-0.0178,-0.0155,-0.0061,-0.0075,-0.0051,0.0065,0.0046,0.0117,0.0195,0.0228,0.0247,0.0356,0.0414,0.0484,0.0493,0.0514,0.0506,0.0519,0.055,0.0552,0.0555,0.0517,0.0516,0.0526,0.0526,0.0526,0.0526,0,-0.024,-0.0221,-0.0227,-0.0186,-0.0144,-0.0129,-0.0033,0.0021,0.0091,0.0165,0.0243,0.0327,0.0392,0.0427,0.0469,0.0522,0.0496,0.0535,0.0553,0.0554,0.0513,0.0513,0.0523,0.0524,0.0524,0.0525,0,0,-0.0316,-0.028,-0.0282,-0.0287,-0.02,-0.0171,-0.0118,-0.0027,0.0012,0.012,0.0155,0.0283,0.0344,0.0388,0.0455,0.0512,0.0519,0.0529,0.0532,0.0484,0.0535,0.0577,0.0581,0.0559,0.056,0.0561,0.048,0,-0.0403,-0.0451,-0.0395,-0.0409,-0.0419,-0.0305,-0.026,-0.0154,-0.0051,0.0022,0.0164,0.0229,0.0329,0.035,0.0429,0.0491,0.0525,0.0533,0.0549,0.0548,0.0581,0.0587,0.0567,0.0501,0.048,0.048,0.048,0,-0.0485,-0.0495,-0.055,-0.0512,-0.051,-0.0489,-0.0389,-0.0336,-0.0181,-0.0114,0.0004,0.0112,0.0226,0.0298,0.0423,0.0416,0.0471,0.0528,0.0527,0.0588,0.0594,0.0509,0.0502,0.048,0.048,0.048,0.048,0,-0.0568,-0.0591,-0.0628,-0.062,-0.0564,-0.0563,-0.0513,-0.038,-0.032,-0.0198,-0.0151,0.0002,0.0066,0.0181,0.0346,0.0361,0.0461,0.0486,0.0569,0.0568,0.057,0.0571,0.0566,0.0566,0.0566,0.0566,0.0567,0,-0.0651,-0.068,-0.0672,-0.0689,-0.0711,-0.0651,-0.0634,-0.0562,-0.0456,-0.0379,-0.0226,-0.0145,0.0048,0.0163,0.0285,0.043,0.041,0.0563,0.0571,0.055,0.055,0.0565,0.0566,0.0563,0.0564,0.0564,0.0565,0,-0.0725,-0.0726,-0.0768,-0.0756,-0.0751,-0.0765,-0.0708,-0.0669,-0.0582,-0.0495,-0.0459,-0.0268,-0.0125,0.0061,0.0225,0.0346,0.0475,0.0532,0.0466,0.0472,0.0547,0.0547,0.0566,0.0567,0.0568,0.0569,0.057,0,-0.0767,-0.08,-0.0822,-0.0836,-0.0835,-0.0839,-0.0814,-0.0734,-0.0677,-0.0543,-0.0495,-0.0347,-0.0189,0.0046,0.0264,0.044,0.0486,0.0523,0.059,0.0552,0.0557,0.0555,0.0553,0.0529,0.0529,0.0529,0.053,0,-0.0833,-0.0842,-0.0867,-0.0901,-0.0904,-0.0897,-0.0864,-0.0844,-0.073,-0.0651,-0.0524,-0.041,-0.0161,0.0072,0.0317,0.0428,0.0495,0.0536,0.052,0.0562,0.052,0.0524,0.0523,0.0532,0.0532,0.0532,0.0532,0.0531,-0.0865,-0.0903,-0.0924,-0.0948,-0.0945,-0.0928,-0.0924,-0.0862,-0.0791,-0.0647,-0.0554,-0.0359,-0.015,0.0221,0.0383,0.0533,0.0542,0.0592,0.0589,0.0586,0.0628,0.0595,0.0621,0.0621,0.0621,0.0622,0.0622,0,-0.0889,-0.0919,-0.0953,-0.0972,-0.0957,-0.0948,-0.0912,-0.0874,-0.0794,-0.0644,-0.0505,-0.0262,0.0001,0.0213,0.0463,0.0609,0.0587,0.0618,0.0574,0.0572,0.0569,0.0609,0.0597,0.0597,0.0597,0.0597,0,0,-0.0898,-0.0939,-0.0956,-0.0951,-0.0952,-0.0913,-0.0896,-0.0842,-0.0733,-0.0591,-0.0434,-0.0227,0.0036,0.0207,0.038,0.0504,0.0494,0.0501,0.0509,0.0434,0.043,0.0545,0.0602,0,0,0,0,0]}],[{"header":{"parameterUnit":"m.s-1","parameterCategory":2,"la1":30.2991,"la2":30.254,"lo1":-89.0895,"lo2":-89.0444,"dy":0.0017,"dx":0.0017,"nx":28,"ny":28,"refTime":"2023-09-13T09:00:00:Z","depth":"4","parameterNumber":2,"parameterNumberName":"U-component_of_CURRENTS"},"data":[0,0,0,0,0,0,0,0,0,0,0,0,0,0,0,0,0,0,0,0,0,0,0,0,0,0,0,0,0,0,0,0,0,0,0,0,0,0,0,0,0,0,0,0,0,0,0,0,0,0,0,0,0,0,0,0,0,0,-0.0619,-0.062,0,-0.0657,-0.0657,-0.0658,-0.0694,-0.0695,-0.0696,-0.0697,-0.0791,-0.0792,-0.0794,0,0,0,0,0,0,0,0,0,0,0,0,0,-0.0654,-0.0652,-0.0619,-0.062,-0.0621,-0.0657,-0.0657,-0.0658,-0.0694,-0.0695,-0.0696,-0.0697,-0.079,-0.0792,-0.0794,0,0,0,0,0,0,0,0,0,0,0,0,0,-0.0657,-0.0652,-0.0619,-0.0645,-0.0648,-0.0657,-0.0657,-0.0658,-0.0694,-0.0695,-0.0696,-0.0697,-0.0789,-0.0792,-0.0795,-0.0789,0,0,-0.0803,-0.0804,0,0,0,0,0,0,0,0,-0.0657,-0.0655,-0.0641,-0.0644,-0.0647,-0.0675,-0.0704,-0.0705,-0.0694,-0.0674,-0.0697,-0.0698,-0.0758,-0.0763,-0.0763,-0.0793,-0.0798,-0.0803,-0.0805,-0.0806,-0.0807,0,0,0,0,0,0,0,-0.0656,-0.0654,-0.0631,-0.0642,-0.0645,-0.0682,-0.0682,-0.0705,-0.0708,-0.0675,-0.0679,-0.0687,-0.076,-0.076,-0.0766,-0.0799,-0.0803,-0.0805,-0.0807,-0.0808,-0.0944,-0.0946,0,0,0,0,0,0,-0.0652,-0.0653,-0.063,-0.0633,-0.0658,-0.068,-0.0681,-0.0662,-0.0707,-0.0715,-0.0687,-0.0689,-0.0755,-0.0763,-0.0769,-0.0854,-0.0806,-0.0808,-0.081,-0.0942,-0.0945,-0.0947,0,0,0,0,0,0,-0.0652,-0.0648,-0.0629,-0.0648,-0.0649,-0.0678,-0.0657,-0.0663,-0.0677,-0.0715,-0.0724,-0.0698,-0.0756,-0.0766,-0.0817,-0.0854,-0.081,-0.0812,-0.094,-0.0943,-0.0946,-0.0966,0,0,0,0,0,0,-0.0652,-0.0647,-0.0629,-0.0647,-0.0647,-0.0649,-0.0657,-0.0663,-0.0682,-0.0686,-0.0728,-0.0737,-0.0758,-0.0813,-0.082,-0.0857,-0.0814,-0.0937,-0.0941,-0.0945,-0.0963,-0.0969,-0.0975,0,0,0,0,0,-0.0653,-0.0623,-0.0627,-0.0625,-0.0621,-0.065,-0.0654,-0.0677,-0.0681,-0.0693,-0.0729,-0.0736,-0.0842,-0.0816,-0.0824,-0.0863,-0.0936,-0.094,-0.0945,-0.096,-0.0968,-0.0975,0,0,0,0,0,0,-0.0644,-0.0625,-0.063,-0.06,-0.0632,-0.0658,-0.0665,-0.0679,-0.0712,-0.072,-0.075,-0.0762,-0.0828,-0.084,-0.0811,-0.0917,-0.0894,-0.09,-0.0904,-0.0911,-0.0917,-0.0909,-0.0817,0,0,0,0,0,-0.0629,-0.0589,-0.0613,-0.0593,-0.0609,-0.0638,-0.0649,-0.0671,-0.0703,-0.0718,-0.0761,-0.0806,-0.0848,-0.0874,-0.0916,-0.0959,-0.0977,-0.0996,-0.1002,-0.1006,-0.1008,-0.1052,-0.1061,-0.0962,-0.0961,-0.0961,0,0,-0.0624,-0.0606,-0.0588,-0.0587,-0.0611,-0.0649,-0.0647,-0.0674,-0.0694,-0.0724,-0.0777,-0.0829,-0.0866,-0.0928,-0.0959,-0.0944,-0.1051,-0.1012,-0.1016,-0.1014,-0.1057,-0.1067,-0.1075,-0.0965,-0.0964,-0.0964,0,0,-0.0637,-0.0582,-0.0589,-0.0606,-0.064,-0.0649,-0.0661,-0.071,-0.0716,-0.0774,-0.0805,-0.0872,-0.0944,-0.0978,-0.1,-0.1059,-0.1082,-0.109,-0.111,-0.1153,-0.1161,-0.1168,-0.1223,-0.1235,-0.109,-0.109,-0.109,0,-0.0651,-0.0638,-0.0605,-0.064,-0.0661,-0.0655,-0.0711,-0.07,-0.0763,-0.0774,-0.0802,-0.0938,-0.0963,-0.1029,-0.1058,-0.1071,-0.1109,-0.1074,-0.1159,-0.1166,-0.1173,-0.1227,-0.124,-0.1092,-0.1092,-0.1091,-0.1091,0,-0.0691,-0.0688,-0.0696,-0.072,-0.0743,-0.0767,-0.0775,-0.08,-0.0817,-0.082,-0.0904,-0.0967,-0.1056,-0.1077,-0.1084,-0.1158,-0.1175,-0.116,-0.1132,-0.1184,-0.1239,-0.1251,-0.1094,-0.1093,-0.1093,-0.1093,0,0,-0.0711,-0.0723,-0.0732,-0.0752,-0.0779,-0.08,-0.0828,-0.0847,-0.0878,-0.0918,-0.0992,-0.1047,-0.1091,-0.112,-0.1161,-0.1192,-0.1272,-0.1203,-0.1204,-0.1244,-0.1394,-0.1235,-0.1233,-0.1278,-0.128,-0.1282,-0.1419,0,-0.077,-0.0826,-0.0825,-0.0881,-0.091,-0.0913,-0.0945,-0.0952,-0.0974,-0.1034,-0.104,-0.1121,-0.1094,-0.1186,-0.1205,-0.1276,-0.1305,-0.1237,-0.135,-0.1353,-0.1193,-0.1241,-0.1288,-0.1428,-0.1431,-0.1433,-0.1435,0,-0.0821,-0.084,-0.0914,-0.0947,-0.0969,-0.1012,-0.1071,-0.11,-0.1127,-0.116,-0.1218,-0.1233,-0.1296,-0.1278,-0.1372,-0.1341,-0.1365,-0.1392,-0.1398,-0.1245,-0.1216,-0.1364,-0.1458,-0.1456,-0.1454,-0.1453,-0.1451,0,-0.0825,-0.0893,-0.0937,-0.0948,-0.1003,-0.1054,-0.1098,-0.1148,-0.1153,-0.1254,-0.1315,-0.1365,-0.145,-0.1469,-0.1479,-0.1458,-0.1577,-0.1555,-0.1428,-0.1419,-0.1512,-0.1503,-0.1603,-0.1602,-0.1602,-0.1602,-0.1601,0,-0.0837,-0.0872,-0.0944,-0.0953,-0.1016,-0.1085,-0.1158,-0.1215,-0.1295,-0.1304,-0.1386,-0.1441,-0.1503,-0.1544,-0.1537,-0.1513,-0.1618,-0.1438,-0.1437,-0.1522,-0.1512,-0.1522,-0.1511,-0.1607,-0.1606,-0.1605,-0.1604,0,-0.0812,-0.0856,-0.0896,-0.0979,-0.1006,-0.1059,-0.1139,-0.1164,-0.1308,-0.1362,-0.1393,-0.1508,-0.1573,-0.1595,-0.1665,-0.159,-0.1584,-0.1542,-0.1654,-0.1657,-0.1396,-0.1385,-0.1442,-0.1437,-0.1433,-0.143,-0.1427,0,-0.0797,-0.0817,-0.0887,-0.0886,-0.0919,-0.0996,-0.1014,-0.1138,-0.1158,-0.1361,-0.1361,-0.1489,-0.1532,-0.1546,-0.1572,-0.1558,-0.1507,-0.1528,-0.1423,-0.1383,-0.1377,-0.1372,-0.1367,-0.1421,-0.142,-0.1419,-0.1418,0,-0.0754,-0.0785,-0.0803,-0.081,-0.0826,-0.083,-0.0891,-0.0908,-0.1054,-0.1188,-0.1295,-0.1344,-0.1426,-0.1454,-0.1456,-0.1426,-0.153,-0.1486,-0.1493,-0.1395,-0.1358,-0.1355,-0.1354,-0.1404,-0.1406,-0.1408,-0.1408,0,-0.071,-0.0709,-0.0723,-0.0717,-0.0703,-0.0665,-0.0728,-0.0775,-0.0837,-0.1075,-0.1099,-0.127,-0.1404,-0.1384,-0.1373,-0.1341,-0.1301,-0.1258,-0.1276,-0.1292,-0.1164,-0.109,-0.1058,0,0,0,0,0,-0.0665,-0.0636,-0.0614,-0.0593,-0.0559,-0.0562,-0.0613,-0.0685,-0.0855,-0.0876,-0.0991,-0.1049,-0.1111,-0.1197,-0.1122,-0.1245,-0.1268,-0.1151,-0.1218,-0.1329,-0.1344,-0.1198,0,0,0,0,0,0,-0.0629,-0.0609,-0.059,-0.047,-0.0425,-0.0392,-0.0424,-0.0543,-0.0581,-0.0776,-0.0811,-0.096,-0.1017,-0.1127,-0.1098,-0.1109,-0.1121,-0.1235,-0.1231,-0.132,-0.1334,-0.1347,-0.1202,0,0,0,0,0]},{"header":{"parameterUnit":"m.s-1","parameterCategory":2,"la1":30.2991,"la2":30.254,"lo1":-89.0895,"lo2":-89.0444,"dy":0.0017,"dx":0.0017,"nx":28,"ny":28,"refTime":"2023-09-13T09:00:00:Z","depth":"4","parameterNumber":3,"parameterNumberName":"V-component_of_CURRENTS"},"data":[0,0,0,0,0,0,0,0,0,0,0,0,0,0,0,0,0,0,0,0,0,0,0,0,0,0,0,0,0,0,0,0,0,0,0,0,0,0,0,0,0,0,0,0,0,0,0,0,0,0,0,0,0,0,0,0,0,0,-0.0583,-0.0583,0,-0.056,-0.0559,-0.0559,-0.0544,-0.0544,-0.0545,-0.0545,-0.0511,-0.051,-0.0509,0,0,0,0,0,0,0,0,0,0,0,0,0,-0.0549,-0.055,-0.0583,-0.0583,-0.0583,-0.056,-0.0559,-0.0559,-0.0544,-0.0544,-0.0545,-0.0545,-0.0511,-0.051,-0.0509,0,0,0,0,0,0,0,0,0,0,0,0,0,-0.0547,-0.055,-0.0583,-0.0573,-0.0572,-0.056,-0.0559,-0.0559,-0.0544,-0.0544,-0.0545,-0.0545,-0.0512,-0.051,-0.0509,-0.05,0,0,-0.0505,-0.0504,0,0,0,0,0,0,0,0,-0.0548,-0.0549,-0.0575,-0.0574,-0.0573,-0.0556,-0.0535,-0.0539,-0.0544,-0.0554,-0.0545,-0.0545,-0.0526,-0.0523,-0.0517,-0.0498,-0.0497,-0.0505,-0.0504,-0.0503,-0.0503,0,0,0,0,0,0,0,-0.0548,-0.0549,-0.0572,-0.0575,-0.0574,-0.0548,-0.0548,-0.0535,-0.0539,-0.0553,-0.0552,-0.0552,-0.0525,-0.0519,-0.0516,-0.0496,-0.0505,-0.0503,-0.0503,-0.0502,-0.0489,-0.0489,0,0,0,0,0,0,-0.0557,-0.055,-0.0573,-0.0572,-0.0561,-0.0549,-0.0549,-0.056,-0.0539,-0.0536,-0.0552,-0.0551,-0.0521,-0.0518,-0.0515,-0.0539,-0.0503,-0.0502,-0.0501,-0.0488,-0.0489,-0.049,0,0,0,0,0,0,-0.0556,-0.056,-0.0574,-0.056,-0.056,-0.055,-0.0562,-0.056,-0.0561,-0.0538,-0.0535,-0.0556,-0.0521,-0.0517,-0.0513,-0.0536,-0.0501,-0.05,-0.0488,-0.0489,-0.0489,-0.0564,0,0,0,0,0,0,-0.0556,-0.056,-0.0578,-0.0561,-0.0562,-0.0577,-0.0562,-0.056,-0.056,-0.056,-0.0541,-0.0537,-0.0521,-0.0515,-0.0512,-0.0534,-0.0499,-0.0487,-0.0488,-0.0489,-0.0561,-0.0567,-0.0572,0,0,0,0,0,-0.0555,-0.0574,-0.058,-0.0583,-0.0586,-0.0578,-0.0575,-0.0566,-0.0561,-0.0566,-0.0553,-0.0538,-0.0519,-0.0515,-0.051,-0.0533,-0.0487,-0.0488,-0.0489,-0.0558,-0.0566,-0.0572,0,0,0,0,0,0,-0.0562,-0.0574,-0.058,-0.0601,-0.0597,-0.0576,-0.0582,-0.0572,-0.0565,-0.0566,-0.0543,-0.0539,-0.0544,-0.0524,-0.052,-0.0529,-0.0501,-0.0501,-0.0555,-0.0561,-0.0567,-0.0547,-0.0498,0,0,0,0,0,-0.0576,-0.0599,-0.0595,-0.0613,-0.0615,-0.0601,-0.0599,-0.059,-0.0578,-0.0575,-0.0566,-0.0552,-0.0543,-0.0542,-0.0528,-0.0533,-0.0452,-0.0544,-0.0549,-0.0555,-0.0535,-0.0404,-0.0395,-0.0493,-0.0493,-0.0493,0,0,-0.0588,-0.0593,-0.0609,-0.0618,-0.0615,-0.0619,-0.06,-0.0599,-0.0608,-0.0573,-0.0587,-0.0571,-0.0548,-0.0556,-0.0556,-0.0544,-0.0492,-0.0556,-0.0561,-0.0537,-0.0404,-0.0393,-0.0384,-0.0494,-0.0494,-0.0494,0,0,-0.0599,-0.0625,-0.0639,-0.064,-0.0638,-0.0637,-0.064,-0.0629,-0.0634,-0.0641,-0.0619,-0.0605,-0.0608,-0.0585,-0.0575,-0.0599,-0.0524,-0.0614,-0.0632,-0.0506,-0.0496,-0.0486,-0.0402,-0.0384,-0.062,-0.0621,-0.0621,0,-0.0607,-0.0628,-0.064,-0.0643,-0.0648,-0.0648,-0.0653,-0.0662,-0.0653,-0.065,-0.0657,-0.0617,-0.0613,-0.0588,-0.0615,-0.0611,-0.0537,-0.0613,-0.0511,-0.0499,-0.0487,-0.0403,-0.0382,-0.0624,-0.0624,-0.0623,-0.0623,0,-0.0618,-0.0639,-0.0645,-0.0663,-0.0671,-0.0676,-0.0687,-0.0695,-0.0706,-0.0704,-0.0688,-0.0663,-0.0627,-0.0644,-0.0649,-0.0583,-0.0559,-0.053,-0.049,-0.0481,-0.0395,-0.0371,-0.063,-0.0628,-0.0627,-0.0626,0,0,-0.0614,-0.0649,-0.065,-0.0666,-0.0681,-0.0687,-0.0708,-0.0717,-0.0703,-0.0717,-0.0683,-0.0697,-0.0666,-0.065,-0.0635,-0.0557,-0.0449,-0.0527,-0.0519,-0.0439,-0.019,-0.0246,-0.0225,-0.0396,-0.0391,-0.0388,-0.0173,0,-0.0614,-0.0642,-0.0652,-0.068,-0.07,-0.0705,-0.0715,-0.0723,-0.072,-0.0693,-0.0673,-0.0638,-0.0675,-0.064,-0.0577,-0.0465,-0.0385,-0.0511,-0.0213,-0.0204,-0.025,-0.0199,-0.0374,-0.0155,-0.015,-0.0146,-0.0143,0,-0.0609,-0.0636,-0.0667,-0.0693,-0.0697,-0.0713,-0.071,-0.0716,-0.0686,-0.0666,-0.0626,-0.0595,-0.0521,-0.0527,-0.0328,-0.0405,-0.0308,-0.0225,-0.0213,-0.0213,-0.0215,-0.0156,-0.0099,-0.0102,-0.0106,-0.0109,-0.0111,0,-0.0606,-0.0639,-0.0674,-0.0685,-0.0713,-0.0721,-0.0734,-0.0714,-0.0706,-0.0632,-0.0587,-0.0498,-0.0429,-0.0287,-0.0194,-0.0223,0.0046,0.0047,0.0091,0.0087,0.0106,0.0094,0.0227,0.0227,0.0226,0.0226,0.0225,0,-0.06,-0.0626,-0.0682,-0.0701,-0.0728,-0.0736,-0.0735,-0.0714,-0.0664,-0.0635,-0.0574,-0.0502,-0.0358,-0.0228,-0.013,0.0034,0.0109,0.0113,0.0156,0.0061,0.0042,0.0122,0.0106,0.0234,0.0232,0.023,0.0229,0,-0.0588,-0.0624,-0.067,-0.0716,-0.0733,-0.0755,-0.077,-0.0751,-0.0689,-0.0629,-0.0599,-0.0472,-0.0294,-0.0168,0.0079,0.0118,0.0291,0.0329,0.0197,0.0225,0.0235,0.0214,0.0446,0.0447,0.0447,0.0447,0.0447,0,-0.0587,-0.0611,-0.0688,-0.0722,-0.075,-0.0787,-0.0798,-0.0773,-0.0746,-0.0619,-0.058,-0.0407,-0.0324,-0.0013,0.0112,0.0335,0.0331,0.0422,0.0338,0.0249,0.0267,0.0245,0.0224,0.0447,0.0447,0.0447,0.0447,0,-0.0581,-0.0613,-0.0655,-0.0726,-0.0769,-0.0801,-0.0818,-0.0795,-0.0737,-0.0689,-0.0529,-0.0385,-0.0196,-0.0008,0.015,0.0294,0.0372,0.0424,0.0424,0.0347,0.0252,0.0265,0.0244,0.0448,0.0448,0.0448,0.0448,0,-0.0578,-0.0607,-0.0664,-0.072,-0.0771,-0.0786,-0.0806,-0.0763,-0.0726,-0.0595,-0.0548,-0.0347,-0.0235,-0.0026,0.012,0.0253,0.028,0.0309,0.0316,0.0317,0.0179,0.0034,0.0229,0,0,0,0,0,-0.0569,-0.0598,-0.0651,-0.071,-0.0754,-0.0781,-0.0793,-0.0796,-0.0752,-0.0641,-0.059,-0.0419,-0.0177,-0.0066,0.0065,0.0105,0.0286,0.0259,0.0319,0.0451,0.045,0.03,0,0,0,0,0,0,-0.0567,-0.0615,-0.064,-0.0676,-0.0709,-0.0747,-0.0757,-0.0737,-0.0672,-0.0611,-0.0479,-0.0405,-0.0172,-0.0247,0.0065,0.0105,0.0155,0.0373,0.0375,0.0451,0.0451,0.045,0.0296,0,0,0,0,0]}]]